#timestamp,LO_Frequency,Hit,StdDev 
1583816415.3,286047002.2,N
1583816435.1,286047001.5,N
1583816455.9,286047003.6,Y
1583816475.7,286047004.3,P
1583816495.5,286047001.3,N
1583816515.4,286047002.2,N
1583816535.2,286047002.0,N
1583816555.0,286047000.3,N
1583816555.9,286047000.3,N
1583816575.8,286046996.6,N
1583816595.6,286046999.4,N
1583816615.5,286046998.8,N
1583816635.3,286047000.4,N
1583816655.1,286046999.3,N
1583816675.9,286046998.4,N
1583816695.7,286047001.1,N
1583816715.5,286046999.2,N
1583816735.4,286046998.8,N
1583816755.2,286046999.3,N
1583816775.1,286046999.5,N
1583816776.0,286046999.5,N
1583816795.8,286046998.5,N
1583816815.6,286046998.4,N
1583816835.5,286047000.2,N
1583816855.3,286047000.9,N
1583816875.2,286047000.5,N
1583816895.9,286047002.6,N
1583816915.7,286047001.3,N
1583816935.6,286047002.4,N
1583816955.4,286046999.2,N
1583816975.2,286046998.5,N
1583816995.1,286047002.8,N
1583816996.0,286047002.8,N
1583817015.8,286047001.4,N
1583817035.7,286047000.0,N
1583817055.5,286047000.3,N
1583817105.4,286047001.0,E
1583817115.3,286046998.3,N
1583817135.1,286046997.4,P
1583817155.8,286046996.2,P
1583817175.7,286046993.4,Y
1583817195.5,286046999.5,P
1583817215.4,286047000.9,N
1583817235.2,286047000.0,N
1583817255.0,286047004.2,Y
1583817255.9,286047004.2,P
1583817275.8,286047004.4,N
1583817295.6,286047006.0,N
1583817315.5,286047003.7,N
1583817335.3,286047005.7,N
1583817355.1,286047001.6,N
1583817375.9,286047002.9,N
1583817395.7,286047002.0,N
1583817415.5,286047000.9,N
1583817435.4,286047000.9,N
1583817455.2,286047000.7,N
1583817475.1,286046998.1,N
1583817476.0,286046998.1,N
1583817495.8,286047000.5,N
1583817515.6,286047001.7,N
1583817535.5,286047001.4,N
1583817555.3,286047001.7,N
1583817575.2,286047006.0,N
1583817595.9,286047003.5,N
1583817615.7,286047003.4,N
1583817635.6,286047005.6,N
1583817655.4,286047004.3,N
1583817675.3,286047002.2,N
1583817695.1,286046998.1,N
1583817696.0,286046998.1,N
1583817715.8,286047001.5,N
1583817735.7,286047001.4,N
1583817755.5,286047002.2,N
1583817775.3,286047001.4,N
1583817795.2,286047003.3,N
1583817815.0,286047003.0,N
1583817815.9,286047003.0,N
1583817835.8,286047003.0,N
1583817855.6,286047003.0,N
1583817875.4,286047005.7,N
1583817895.3,286047003.2,N
1583817915.1,286047005.3,N
1583817935.9,286047001.4,N
1583817955.7,286047004.0,N
1583817975.5,286046999.8,N
1583817995.4,286047003.1,N
1583818015.2,286047007.5,Y
1583818035.0,286047003.4,P
1583818035.9,286047003.4,P
1583818055.8,286047002.8,P
1583818075.6,286047002.2,Y
1583818095.5,286046999.6,P
1583818115.3,286046995.7,N
1583818135.1,286046997.9,N
1583818155.9,286046998.4,N
1583818175.7,286047001.2,N
1583818195.6,286047000.0,N
1583818215.4,286046999.9,N
1583818235.2,286046998.4,N
1583818255.1,286046999.3,N
1583818256.0,286046999.3,N
1583818275.8,286046997.9,N
1583818295.6,286046997.5,N
1583818315.5,286046999.1,N
1583818335.3,286047001.2,N
1583818355.2,286046998.2,N
1583818375.9,286046998.1,N
1583818395.7,286046998.9,N
1583818415.6,286046997.1,N
1583818435.4,286046997.2,N
1583818455.3,286046995.4,N
1583818475.1,286046996.2,N
1583818476.0,286046996.2,N
1583818495.8,286046995.8,N
1583818515.7,286046995.1,N
1583818535.5,286046995.4,N
1583818555.3,286046997.4,N
1583818575.2,286046993.5,Y
1583818595.0,286046995.7,P
1583818595.9,286046995.7,P
1583818615.8,286046994.7,P
1583818635.6,286046996.0,Y
1583818655.4,286047000.0,P
1583818675.3,286047002.4,N
1583818695.1,286047001.8,N
1583818715.9,286047000.1,N
1583818735.7,286047002.0,N
1583818755.5,286047003.1,N
1583818775.4,286047004.2,N
1583818795.2,286047004.3,N
1583818815.0,286047005.6,N
1583818815.9,286047005.6,N
1583818835.8,286047003.4,N
1583818855.6,286047005.3,N
1583818875.5,286047005.1,N
1583818895.3,286047005.6,N
1583818915.1,286047005.6,N
1583818935.9,286047003.9,N
1583818955.7,286047003.1,N
1583818975.6,286047004.3,N
1583818995.4,286047003.7,N
1583819015.2,286047001.7,N
1583819035.1,286047006.0,N
1583819036.0,286047006.0,N
1583819055.8,286047003.3,N
1583819075.6,286047004.1,N
1583819095.5,286047005.5,N
1583819115.3,286047001.6,N
1583819135.2,286047004.3,N
1583819155.9,286047004.0,N
1583819175.7,286047005.7,N
1583819195.6,286047005.9,N
1583819215.4,286047003.2,N
1583819235.2,286047004.4,N
1583819255.1,286047002.7,N
1583819256.0,286047002.7,N
1583819275.8,286047002.1,N
1583819295.7,286047002.9,N
1583819315.5,286047003.1,N
1583819335.3,286047003.9,N
1583819355.2,286047001.7,N
1583819375.0,286047001.9,N
1583819375.9,286047001.9,N
1583819395.8,286046999.7,N
1583819415.6,286047000.2,N
1583819435.4,286047000.2,N
1583819455.3,286046999.8,N
1583819475.1,286047003.2,N
1583819495.8,286047000.4,N
1583819515.7,286047000.3,N
1583819535.5,286047000.8,N
1583819555.4,286047000.7,N
1583819575.2,286047000.4,N
1583819595.0,286047002.2,N
1583819595.9,286047002.2,N
1583819615.8,286047003.5,N
1583819635.6,286047005.3,Y
1583819655.5,286047004.3,P
1583819675.3,286047001.4,N
1583819695.1,286047002.1,N
1583819715.9,286047002.6,N
1583819735.7,286046999.9,N
1583819755.5,286046999.7,N
1583819775.4,286047002.4,N
1583819795.2,286047001.2,N
1583819815.1,286046999.7,N
1583819816.0,286046999.7,N
1583819835.8,286047003.5,N
1583819855.6,286047003.8,N
1583819875.5,286047002.8,N
1583819895.3,286047002.5,N
1583819915.2,286047002.0,N
1583819935.9,286046999.7,N
1583819955.7,286047002.6,N
1583819975.6,286047002.8,N
1583819995.4,286047000.0,N
